Flag for U.S.A. Weather past 2 weeks in Gainesville, Florida, U.S.A.

Now
52 °F

Low clouds.


Feels Like: 50 °F
Forecast: 51 / 75 °F
Wind: 6 mph from Northeast

Location: Gainesville Regional Airport

Current Time: Mar 1, 2015 at 6:12:10 AM

Latest Report: Mar 1, 2015 at 5:53 AM


Visibility: 8 mi

Pressure: 30.37 "Hg

Humidity: 97%

Dew point: 51 °F

Location of GainesvilleLocation

Historic Weather in Gainesville — Graph

°F

Gainesville temperature yesterday

Maximum temperature yesterday: 58 °F (at 10:53 AM)
Minimum temperature yesterday: 49 °F (at 12:53 AM)
Average temperature yesterday: 53 °F

Past Weeks' High & Low Weather Summary

 TemperatureHumidityPressure
High79 °F (Feb 22, 1:53 PM)100% (Feb 22, 5:53 AM)30.48 "Hg (Feb 22, 5:53 AM)
Low24 °F (Feb 20, 6:53 AM)16% (Feb 20, 3:53 PM)29.59 "Hg (Feb 26, 1:53 AM)
Average54 °F73%30.13 "Hg
* Reported Feb 14 4:53 AM — Mar 1 4:53 AM, Gainesville, Weather by CustomWeather, © 2015

Note: Actual official high and low records may vary slightly from our data, if they occured in-between our weather recording intervals... More about our weather records

Advertising

Gainesville weather history for previous 24 hours

 ConditionsComfort  
Time TempWeatherWind HumidityBarometerVisibility
4:53 AM
Sun, Mar 1
51 °FLight rain. Fog.6 mph100%30.36 "Hg5 mi
3:53 AM51 °FLight rain. Fog.6 mph100%30.37 "Hg5 mi
2:53 AM51 °FLight rain. Low clouds.7 mph100%30.37 "Hg7 mi
2:00 AM51 °FMostly cloudy.5 mph100%30.39 "Hg9 mi
12:53 AM51 °FLight rain. Mostly cloudy.7 mph100%30.40 "Hg8 mi
11:53 PM
Sat, Feb 28
51 °FLight rain. Fog.7 mph100%30.43 "Hg4 mi
10:53 PM51 °FLight rain. Fog.8 mph96%30.43 "Hg5 mi
9:53 PM51 °FLow clouds.9 mph100%30.44 "Hg7 mi
8:53 PM51 °FLow clouds.10 mph96%30.42 "Hg9 mi
7:53 PM51 °FLight rain. Fog.13 mph96%30.41 "Hg5 mi
6:53 PM53 °FLight rain. Fog.18 mph96%30.39 "Hg6 mi
5:53 PM54 °FFog.12 mph97%30.39 "Hg3 mi
4:53 PM54 °FFog.12 mph97%30.38 "Hg3 mi
3:53 PM56 °FFog.10 mph93%30.36 "Hg5 mi
2:53 PM58 °FFog.13 mph93%30.36 "Hg6 mi
1:53 PM58 °FFog.15 mph97%30.37 "Hg6 mi
12:53 PM57 °FLight rain. Fog.12 mph96%30.39 "Hg5 mi
11:53 AM56 °FLight rain. Fog.10 mph97%30.42 "Hg4 mi
10:53 AM58 °FMore clouds than sun.10 mph90%30.41 "Hg8 mi
9:53 AM56 °FOvercast.8 mph93%30.41 "Hg8 mi
8:53 AM55 °FLight rain. Overcast.10 mph90%30.38 "Hg10 mi
7:53 AM54 °FOvercast.10 mph86%30.37 "Hg10 mi
6:53 AM53 °FOvercast.10 mph86%30.35 "Hg10 mi
Weather by CustomWeather, © 2015

See weather overviewHow to use our weather pages